Regional Weather Roundup
Issued by NWS

Home | Current Version | Previous Version | Graphics & Text | Print | Product List | Glossary On
Versions: 1 2 3 4 5 6 7 8 9 10 11 12 13 14 15 16 17 18 19 20 21 22 23 24 25 26 27 28 29 30 31 32 33 34 35 36 37 38 39 40 41 42 43 44 45 46 47 48 49 50
000
ASUS43 KLMK 220302
RWRKY
KENTUCKY REGIONAL WEATHER ROUNDUP
NATIONAL WEATHER SERVICE LOUISVILLE KY
1000 PM EST TUE NOV 21 2017

NOTE "FAIR" INDICATES FEW OR NO CLOUDS BELOW 12,000 FEET
WITH NO SIGNIFICANT WEATHER AND/OR OBSTRUCTIONS TO VISIBILITY.

KYZ001>023-026-027-061>063-070>075-220400-
WESTERN AND SOUTH CENTRAL KENTUCKY

CITY           SKY/WX    TMP DP  RH WIND       PRES   REMARKS
PADUCAH        CLEAR     46  29  51 N13       30.15R
HENDERSON      CLEAR     43  32  65 N12G17    30.15R
OWENSBORO      PTCLDY    47  32  56 N15       30.11R
HOPKINSVILLE   CLEAR     48  34  59 W5        30.09R
BOWLING GREEN  CLOUDY    45  33  63 CALM      30.09R
GLASGOW        NOT AVBL
$$

KYZ024-025-028>034-038-045-046-053-220400-
NORTH CENTRAL KENTUCKY

CITY           SKY/WX    TMP DP  RH WIND       PRES   REMARKS
LOUISVILLE/SDF CLOUDY    51  35  54 NW10      30.05R
LOUISVILLE/LOU CLOUDY    51  36  56 NW6       30.05R
FORT KNOX      CLOUDY    45  33  64 W5        30.04R
$$

KYZ035>037-039>044-047>052-055>060-089>105-220400-
NORTHEAST KENTUCKY

CITY           SKY/WX    TMP DP  RH WIND       PRES   REMARKS
LEXINGTON      PTCLDY    45  30  55 SW8       30.04R
COVINGTON      CLOUDY    46  34  62 NW12      30.02R
FRANKFORT      CLOUDY    46  29  51 SW5       30.03R
$$

KYZ054-064>069-076>088-106>120-220400-
SOUTHEAST KENTUCKY

CITY           SKY/WX    TMP DP  RH WIND       PRES   REMARKS
JACKSON        CLOUDY    52  30  43 W6        30.03R
LONDON         CLOUDY    52  29  41 SW3       30.05R
SOMERSET       NOT AVBL
MIDDLESBORO    CLOUDY    46  46  97 CALM      30.04R
MONTICELLO     MOCLDY    40  34  79 W10       30.09R WCI  33
$$




USA.gov is the U.S. government's official web portal to all federal, state and local government web resources and services.